Logan, UT

8:59 PM MST on December 06, 2019 (GMT -0700)
Logan-Cache

Weather History for KLGU - October, 2019

Change the Weather History Date:

Thursday, October 31, 2019

  Actual Average Record
Temperature  
Mean Temperature 24 °F -  
Max Temperature 37 °F 51 °F 73 °F (2014)
Min Temperature 10 °F 28 °F 10 °F (2003)
Degree Days  
Heating Degree Days 42    
Moisture  
Dew Point 10 °F    
Average Humidity 60    
Maximum Humidity 84    
Minimum Humidity 26    
Precipitation  
Precipitation 0.00 in - - ()
Sea Level Pressure  
Sea Level Pressure 30.54 in    
Wind  
Wind Speed 2 mph ()    
Max Wind Speed 6 mph    
Max Gust Speed -    
Visibility 10.0 miles    
Events      
Averages and records for this station are not official NWS values.
T = Trace of Precipitation, MM = Missing Value Source: Averaged Metar Reports

Daily Weather History Graph

Daily Weather History Graph

Search for Another Location

Airport or City:

Astronomy

Oct. 31, 2019 Rise Set
Actual Time 7:58 AM MDT 6:23 PM MDT
Civil Twilight 7:29 AM MDT 6:51 PM MDT
Nautical Twilight 6:56 AM MDT 7:24 PM MDT
Astronomical Twilight 6:24 AM MDT 7:57 PM MDT
Moon 11:53 AM MDT (10/31) 9:20 PM MDT (10/31)
Length of Visible Light 11h 22m
Length of Day
10h 24m
Waxing Crescent, 16% of the Moon is Illuminated
Oct 31
Waxing Crescent
Nov 4
First Quarter
Nov 12
Full
Nov 19
Last Quarter
Nov 26
New

Hourly Weather History & Observations

Time (MDT) Temp. Windchill Dew Point Humidity Pressure Visibility Wind Dir Wind Speed Gust Speed Precip Events Conditions
12:51 AM 14.0 °F 8.2 °F 8.1 °F 77% 30.68 in 10.0 mi NNE 3.5 mph - N/A   Clear
1:51 AM 15.1 °F 9.4 °F 8.1 °F 74% 30.66 in 10.0 mi SE 3.5 mph - N/A   Clear
2:51 AM 12.0 °F - 6.1 °F 77% 30.66 in 10.0 mi Calm Calm - N/A   Clear
3:51 AM 12.0 °F 4.1 °F 6.1 °F 77% 30.63 in 10.0 mi North 4.6 mph - N/A   Clear
4:51 AM 14.0 °F - 7.0 °F 74% 30.62 in 10.0 mi Calm Calm - N/A   Clear
5:51 AM 15.1 °F 9.4 °F 8.1 °F 74% 30.61 in 10.0 mi South 3.5 mph - N/A   Clear
6:51 AM 10.9 °F - 7.0 °F 84% 30.65 in 10.0 mi Calm Calm - N/A   Clear
7:51 AM 12.0 °F - 7.0 °F 80% 30.64 in 10.0 mi Calm Calm - N/A   Clear
8:51 AM 14.0 °F - 9.0 °F 80% 30.65 in 10.0 mi Calm Calm - N/A   Clear
9:51 AM 17.1 °F 11.7 °F 12.0 °F 81% 30.65 in 10.0 mi NW 3.5 mph - N/A   Clear
10:51 AM 21.0 °F 14.6 °F 12.0 °F 68% 30.63 in 10.0 mi NNW 4.6 mph - N/A   Clear
11:51 AM 24.1 °F - 10.9 °F 57% 30.60 in 10.0 mi Calm Calm - N/A   Clear
12:51 PM 28.9 °F - 10.0 °F 45% 30.55 in 10.0 mi Calm Calm - N/A   Clear
1:51 PM 33.1 °F - 8.1 °F 35% 30.48 in 10.0 mi Calm Calm - N/A   Clear
2:51 PM 35.1 °F 31.0 °F 10.0 °F 35% 30.47 in 10.0 mi North 4.6 mph - N/A   Clear
3:51 PM 37.0 °F - 5.0 °F 26% 30.44 in 10.0 mi Calm Calm - N/A   Clear
4:51 PM 37.9 °F 34.4 °F 8.1 °F 29% 30.41 in 10.0 mi NNE 4.6 mph - N/A   Clear
5:51 PM 36.0 °F - 12.0 °F 37% 30.40 in 10.0 mi Calm Calm - N/A   Clear
6:51 PM 34.0 °F 28.8 °F 12.0 °F 40% 30.41 in 10.0 mi South 5.8 mph - N/A   Clear
7:51 PM 33.1 °F - 14.0 °F 46% 30.42 in 10.0 mi Calm Calm - N/A   Clear
8:51 PM 32.0 °F 28.7 °F 18.0 °F 56% 30.41 in 10.0 mi SSE 3.5 mph - N/A   Clear
9:51 PM 30.0 °F 24.1 °F 19.0 °F 64% 30.40 in 10.0 mi SW 5.8 mph - N/A   Clear
10:51 PM 30.0 °F 26.5 °F 18.0 °F 61% 30.39 in 10.0 mi ENE 3.5 mph - N/A   Mostly Cloudy
11:51 PM 27.0 °F 23.0 °F 16.0 °F 63% 30.39 in 10.0 mi ESE 3.5 mph - N/A   Partly Cloudy